SCP
1 1 1 0 0 0 0 1 1 1 0 0 0 0 0 0 0 0 0 0 0 0 0 0 0 0 0 0 0 0 0 0 0 -0 -0 -0 -0 -0
1 1 0 1 1 0 0 0 0 0 0 0 0 0 0 0 0 0 0 0 0 0 0 0 0 0 0 0 0 0 0 0 0 0 0 -0 -0 -0
1 1 1 1 1 0 0 0 0 0 0 0 0 0 0 0 0 0 0 0 0 0 0 0 0 0 0 0 0 0 0 0 0 0 0 0 0 -0
1 1 1 0 0 0 0 0 0 0 0 0 0 0 0 0 0 0 0 0 0 0 0 0 0 0 0 0 0 0 0 0 0 0 0 0 0 0
0 0 0 0 0 0 0 0 0 0 0 0 0 0 0 0 0 0 0 0 0 0 0 0 0 0 -0 0 0 0 0 0 0 0 0 0 0 0
0 0 0 0 0 0 0 0 0 0 0 0 0 0 0 0 0 0 0 0 0 0 0 0 0 0 -0 -0 0 0 0 0 0 0 0 0 0 0
0 0 0 0 0 0 0 0 0 0 0 0 0 0 0 0 0 0 0 0 0 0 0 0 0 0 0 0 0 0 0 0 0 0 0 0 0 0
0 0 0 0 0 0 0 0 0 0 0 0 0 0 0 0 -0 0 0 0 0 0 0 0 0 0 0 0 0 0 0 0 0 0 0 0 0 0
0 0 0 0 0 0 0 0 0 0 0 0 0 0 -0 0 -0 0 0 0 0 0 0 0 0 0 0 0 0 0 0 -0 0 0 0 0 -0 0
0 0 0 0 0 0 0 0 0 0 0 0 0 0 0 0 -0 -0 0 0 0 0 0 0 0 0 0 0 0 0 0 0 0 0 0 0 0 0
0 0 0 0 0 0 0 0 0 0 0 0 0 0 0 0 0 0 0 0 0 0 0 0 0 0 0 0 0 0 0 0 0 0 0 0 0 0
0 0 0 0 0 0 0 0 0 0 0 0 0 0 0 0 -0 -0 0 0 0 0 0 0 0 0 0 0 0 0 0 0 0 0 0 0 0 0
0 0 0 0 0 0 0 0 0 0 0 0 0 0 0 0 0 0 -0 0 0 0 0 0 0 0 0 0 0 0 0 0 0 0 0 0 0 0
0 0 0 -0 0 0 0 0 0 0 0 0 0 0 0 0 0 0 0 0 0 0 0 0 0 0 0 0 0 0 0 0 0 0 0 0 0 0
0 0 0 0 0 0 -0 -0 0 0 0 0 0 0 0 0 0 0 0 0 0 0 0 0 0 0 0 0 0 0 0 0 0 0 0 0 0 0
0 0 0 0 0 0 0 0 0 0 0 0 0 0 0 0 0 0 0 0 0 0 0 0 0 0 0 0 0 0 0 0 0 0 0 0 0 0
0 0 0 0 0 0 0 0 0 0 0 0 0 0 0 0 0 0 0 0 0 0 0 0 0 0 0 0 0 0 0 0 0 0 0 0 0 0
0 0 0 0 0 0 0 0 0 0 0 0 0 0 0 0 0 0 0 0 0 0 0 0 0 0 0 0 0 0 0 0 0 0 0 0 0 0
0 0 0 0 0 0 0 0 0 0 0 0 0 0 0 0 0 0 0 0 0 0 0 0 0 0 0 0 0 0 0 0 0 0 0 0 0 0
0 0 0 0 0 0 0 0 0 0 0 0 0 0 0 0 0 0 -0 -0 0 0 0 0 0 0 0 0 0 0 -0 0 0 0 0 0 0 0
0 0 0 0 0 0 0 0 0 0 0 0 0 0 0 0 0 0 0 0 0 0 0 0 -0 -0 0 0 0 0 0 0 0 0 0 0 0 0
0 0 0 0 0 0 0 0 0 0 0 -0 0 0 0 0 0 0 0 0 0 0 0 0 0 0 0 0 0 0 0 0 0 -0 0 0 0 0
0 0 0 0 0 0 0 0 0 -0 0 -0 -0 -0 -0 0 0 0 -0 -0 0 0 0 0 0 0 0 0 0 0 0 0 0 0 0 0 0 0
Wind_Speed_500mb
34 33 34 30 32 33 33 27 23 21 18 16 15 19 15 14 15 18 23 24 34 30 31 35 33 32 32 30 32 32 34 31 39 37 38 38 30 34
35 33 32 33 36 34 31 31 27 20 17 14 17 16 11 13 17 19 23 23 28 29 29 31 32 31 32 30 34 31 31 33 32 37 40 29 31 34
33 35 34 33 33 30 27 26 26 23 17 18 19 16 17 20 23 27 23 30 30 29 26 29 29 31 36 34 30 28 31 29 36 31 26 33 35 36
38 34 33 30 29 27 25 25 25 23 17 16 21 20 16 12 13 31 34 36 30 25 27 30 29 31 35 32 26 23 28 27 27 26 30 37 38 39
33 33 30 29 27 24 24 24 23 22 18 18 21 22 18 17 16 26 39 33 31 27 30 31 32 32 31 34 27 33 29 22 23 30 32 32 36 40
33 29 28 25 24 23 24 25 22 21 17 18 21 28 29 28 26 29 32 32 33 33 31 32 35 33 32 35 35 39 30 26 21 26 28 32 36 39
34 31 28 25 23 22 23 23 25 22 18 20 28 34 35 35 34 35 32 31 32 34 35 36 38 41 38 34 36 39 26 26 21 25 30 34 37 39
32 33 31 27 24 24 23 20 20 15 17 22 26 32 34 41 36 34 34 34 32 31 32 35 35 38 38 34 34 32 27 30 19 22 30 35 37 40
27 29 30 31 29 28 27 27 24 17 10 11 19 20 24 33 36 38 32 27 25 35 35 34 35 35 31 28 31 34 27 27 19 21 29 33 37 38
25 25 29 33 35 34 33 33 29 23 19 14 17 11 13 19 27 29 28 31 28 38 38 38 34 36 37 30 30 31 23 23 28 24 30 34 37 36
21 24 28 29 32 35 36 35 32 26 24 22 19 14 10 20 24 29 29 28 36 36 34 39 38 34 36 35 32 32 25 26 26 29 31 33 34 36
22 23 24 27 32 30 34 33 29 28 27 26 25 20 18 20 14 21 25 29 37 28 37 34 41 34 24 28 35 33 28 30 31 31 33 34 34 38
24 25 26 26 28 31 28 24 22 27 29 28 27 24 23 24 17 23 27 20 25 12 29 33 32 34 20 17 35 34 34 35 35 33 34 36 38 40
27 25 28 26 23 29 34 30 23 26 29 31 27 28 28 25 22 25 30 24 23 20 4 31 20 24 22 22 11 12 30 36 34 35 35 37 39 43
31 29 29 30 34 35 28 27 24 22 24 30 31 32 30 27 28 31 32 28 23 20 19 12 21 27 26 26 29 22 15 14 28 37 39 41 42 43
39 33 26 31 29 29 30 22 15 16 17 22 28 30 27 28 28 28 27 26 24 21 22 23 16 19 32 23 29 22 25 21 15 23 37 38 38 38
33 29 31 34 33 29 28 24 18 16 25 29 31 30 29 29 29 29 28 26 25 23 20 22 22 17 15 28 35 34 29 33 33 29 27 28 31 33
33 34 34 32 31 29 25 22 20 19 22 25 26 23 25 26 24 27 28 29 29 23 21 17 15 16 20 21 24 25 24 25 22 27 32 34 35 30
31 35 34 32 30 26 22 18 17 19 21 22 24 22 22 24 21 21 23 26 26 26 23 18 13 11 9 10 11 6 14 16 15 18 22 26 30 31
31 35 29 30 30 26 22 16 20 22 24 20 23 21 21 18 16 18 22 16 16 22 21 19 16 11 11 11 16 15 16 13 16 20 22 26 33 37
33 30 25 29 29 23 18 13 20 20 22 23 22 20 19 15 11 14 17 14 15 17 18 17 13 11 16 22 23 20 17 27 23 25 27 29 30 27
32 28 28 28 24 22 19 19 21 21 20 20 20 20 16 13 16 15 16 13 13 12 12 13 16 19 23 23 27 27 21 17 28 36 24 24 27 20
34 32 31 28 25 22 19 18 19 17 20 22 21 19 17 16 12 10 9 10 12 14 16 19 20 21 23 22 26 26 21 14 17 9 16 24 26 35
Wind_Direction_500mb
232 224 228 228 232 234 238 235 239 242 238 246 252 260 257 245 231 210 203 213 203 200 197 199 204 206 205 201 202 199 200 207 191 182 178 177 179 178
219 217 222 224 228 225 228 240 239 236 240 235 244 244 230 202 199 197 193 181 185 195 193 198 203 199 195 190 190 200 204 184 177 179 183 186 189 184
209 215 218 223 222 220 222 220 224 235 238 239 241 238 229 229 229 215 193 187 187 188 187 189 191 189 187 189 190 202 185 179 178 184 197 186 181 185
211 210 215 214 211 210 217 224 228 235 219 225 232 218 214 243 216 199 190 186 186 184 189 189 187 183 180 192 181 181 174 174 189 199 197 183 182 187
207 212 214 210 211 214 209 213 223 217 225 235 224 205 196 179 158 164 178 185 191 188 186 181 185 183 175 179 182 180 188 196 204 194 184 183 183 183
200 207 210 212 210 201 210 214 216 212 229 223 216 195 184 170 170 165 170 178 182 182 182 180 177 181 185 186 179 185 204 186 188 191 189 190 187 188
197 205 204 202 202 208 215 219 210 213 225 209 203 186 188 182 182 180 180 177 176 178 180 179 177 173 182 187 177 188 192 190 192 200 196 194 191 197
206 202 205 205 206 209 210 210 216 224 231 203 188 182 189 191 188 188 184 169 165 176 174 167 170 176 183 186 195 198 193 191 200 203 197 196 198 205
199 207 212 215 216 211 206 198 198 202 204 236 198 195 201 201 194 191 185 176 179 175 177 173 175 180 182 193 203 197 201 203 206 202 201 204 208 213
217 223 222 222 217 212 204 198 194 196 185 182 178 182 190 200 197 184 186 183 182 173 177 184 183 185 188 190 199 201 212 220 217 222 213 212 215 220
220 213 210 208 208 198 199 198 197 194 184 177 175 171 186 201 201 183 177 180 174 177 183 192 186 196 196 198 200 203 218 224 222 217 218 221 224 228
201 198 196 197 195 188 194 195 198 195 187 183 176 180 182 162 173 182 181 179 184 183 194 195 191 185 188 218 206 217 229 234 234 227 226 229 232 238
176 174 172 173 177 182 180 195 203 199 189 187 186 184 188 184 182 184 183 186 190 193 214 192 200 199 197 209 225 226 239 243 242 239 235 237 240 246
172 171 170 172 170 175 178 181 180 190 194 188 193 192 191 188 180 181 182 184 190 196 159 212 205 205 209 216 212 227 244 242 242 243 242 243 245 250
170 163 159 155 157 153 156 156 167 179 184 190 194 189 184 186 181 176 181 189 194 197 211 210 221 225 223 228 237 247 250 255 246 246 247 249 255 260
158 155 164 158 150 153 153 155 146 166 177 175 176 177 183 187 188 194 197 200 202 216 217 222 230 233 221 229 236 251 251 245 267 261 239 247 259 266
165 163 166 160 158 163 166 164 160 150 161 159 167 176 183 188 194 196 200 205 212 218 226 223 228 240 241 240 248 254 261 257 254 255 259 262 271 274
172 166 165 168 170 170 168 170 168 162 170 174 178 184 187 187 189 196 203 210 217 221 216 213 237 249 267 268 266 261 261 271 262 256 259 265 277 280
164 163 163 167 169 168 169 170 174 173 174 180 184 187 193 195 207 210 204 213 228 212 212 212 233 253 274 291 285 312 266 255 254 253 256 262 273 282
163 161 160 165 163 162 163 166 172 173 177 180 180 187 188 196 201 208 204 214 215 211 217 220 236 247 253 278 287 272 289 283 272 277 277 275 278 290
154 152 149 159 155 158 164 169 167 168 173 178 186 185 179 179 191 192 192 202 202 202 213 235 258 272 275 290 295 295 299 296 295 286 283 286 287 287
148 148 147 151 153 155 164 170 174 176 177 174 173 176 176 178 153 161 174 179 217 225 241 250 261 275 280 271 278 286 296 283 305 300 298 282 280 282
138 137 139 142 148 150 144 146 147 156 161 169 169 172 173 167 178 166 205 226 247 256 265 273 273 270 275 272 275 282 291 289 270 316 294 283 272 281
Wind_Speed_850mb
34 33 34 30 32 33 33 27 23 21 18 16 15 19 15 14 15 18 23 24 34 30 31 35 33 32 32 30 32 32 34 31 39 37 38 38 30 34
35 33 32 33 36 34 31 31 27 20 17 14 17 16 11 13 17 19 23 23 28 29 29 31 32 31 32 30 34 31 31 33 32 37 40 29 31 34
33 35 34 33 33 30 27 26 26 23 17 18 19 16 17 20 23 27 23 30 30 29 26 29 29 31 36 34 30 28 31 29 36 31 26 33 35 36
38 34 33 30 29 27 25 25 25 23 17 16 21 20 16 12 13 31 34 36 30 25 27 30 29 31 35 32 26 23 28 27 27 26 30 37 38 39
33 33 30 29 27 24 24 24 23 22 18 18 21 22 18 17 16 26 39 33 31 27 30 31 32 32 31 34 27 33 29 22 23 30 32 32 36 40
33 29 28 25 24 23 24 25 22 21 17 18 21 28 29 28 26 29 32 32 33 33 31 32 35 33 32 35 35 39 30 26 21 26 28 32 36 39
34 31 28 25 23 22 23 23 25 22 18 20 28 34 35 35 34 35 32 31 32 34 35 36 38 41 38 34 36 39 26 26 21 25 30 34 37 39
32 33 31 27 24 24 23 20 20 15 17 22 26 32 34 41 36 34 34 34 32 31 32 35 35 38 38 34 34 32 27 30 19 22 30 35 37 40
27 29 30 31 29 28 27 27 24 17 10 11 19 20 24 33 36 38 32 27 25 35 35 34 35 35 31 28 31 34 27 27 19 21 29 33 37 38
25 25 29 33 35 34 33 33 29 23 19 14 17 11 13 19 27 29 28 31 28 38 38 38 34 36 37 30 30 31 23 23 28 24 30 34 37 36
21 24 28 29 32 35 36 35 32 26 24 22 19 14 10 20 24 29 29 28 36 36 34 39 38 34 36 35 32 32 25 26 26 29 31 33 34 36
22 23 24 27 32 30 34 33 29 28 27 26 25 20 18 20 14 21 25 29 37 28 37 34 41 34 24 28 35 33 28 30 31 31 33 34 34 38
24 25 26 26 28 31 28 24 22 27 29 28 27 24 23 24 17 23 27 20 25 12 29 33 32 34 20 17 35 34 34 35 35 33 34 36 38 40
27 25 28 26 23 29 34 30 23 26 29 31 27 28 28 25 22 25 30 24 23 20 4 31 20 24 22 22 11 12 30 36 34 35 35 37 39 43
31 29 29 30 34 35 28 27 24 22 24 30 31 32 30 27 28 31 32 28 23 20 19 12 21 27 26 26 29 22 15 14 28 37 39 41 42 43
39 33 26 31 29 29 30 22 15 16 17 22 28 30 27 28 28 28 27 26 24 21 22 23 16 19 32 23 29 22 25 21 15 23 37 38 38 38
33 29 31 34 33 29 28 24 18 16 25 29 31 30 29 29 29 29 28 26 25 23 20 22 22 17 15 28 35 34 29 33 33 29 27 28 31 33
33 34 34 32 31 29 25 22 20 19 22 25 26 23 25 26 24 27 28 29 29 23 21 17 15 16 20 21 24 25 24 25 22 27 32 34 35 30
31 35 34 32 30 26 22 18 17 19 21 22 24 22 22 24 21 21 23 26 26 26 23 18 13 11 9 10 11 6 14 16 15 18 22 26 30 31
31 35 29 30 30 26 22 16 20 22 24 20 23 21 21 18 16 18 22 16 16 22 21 19 16 11 11 11 16 15 16 13 16 20 22 26 33 37
33 30 25 29 29 23 18 13 20 20 22 23 22 20 19 15 11 14 17 14 15 17 18 17 13 11 16 22 23 20 17 27 23 25 27 29 30 27
32 28 28 28 24 22 19 19 21 21 20 20 20 20 16 13 16 15 16 13 13 12 12 13 16 19 23 23 27 27 21 17 28 36 24 24 27 20
34 32 31 28 25 22 19 18 19 17 20 22 21 19 17 16 12 10 9 10 12 14 16 19 20 21 23 22 26 26 21 14 17 9 16 24 26 35
Wind_Direction_850mb
232 224 228 228 232 234 238 235 239 242 238 246 252 260 257 245 231 210 203 213 203 200 197 199 204 206 205 201 202 199 200 207 191 182 178 177 179 178
219 217 222 224 228 225 228 240 239 236 240 235 244 244 230 202 199 197 193 181 185 195 193 198 203 199 195 190 190 200 204 184 177 179 183 186 189 184
209 215 218 223 222 220 222 220 224 235 238 239 241 238 229 229 229 215 193 187 187 188 187 189 191 189 187 189 190 202 185 179 178 184 197 186 181 185
211 210 215 214 211 210 217 224 228 235 219 225 232 218 214 243 216 199 190 186 186 184 189 189 187 183 180 192 181 181 174 174 189 199 197 183 182 187
207 212 214 210 211 214 209 213 223 217 225 235 224 205 196 179 158 164 178 185 191 188 186 181 185 183 175 179 182 180 188 196 204 194 184 183 183 183
200 207 210 212 210 201 210 214 216 212 229 223 216 195 184 170 170 165 170 178 182 182 182 180 177 181 185 186 179 185 204 186 188 191 189 190 187 188
197 205 204 202 202 208 215 219 210 213 225 209 203 186 188 182 182 180 180 177 176 178 180 179 177 173 182 187 177 188 192 190 192 200 196 194 191 197
206 202 205 205 206 209 210 210 216 224 231 203 188 182 189 191 188 188 184 169 165 176 174 167 170 176 183 186 195 198 193 191 200 203 197 196 198 205
199 207 212 215 216 211 206 198 198 202 204 236 198 195 201 201 194 191 185 176 179 175 177 173 175 180 182 193 203 197 201 203 206 202 201 204 208 213
217 223 222 222 217 212 204 198 194 196 185 182 178 182 190 200 197 184 186 183 182 173 177 184 183 185 188 190 199 201 212 220 217 222 213 212 215 220
220 213 210 208 208 198 199 198 197 194 184 177 175 171 186 201 201 183 177 180 174 177 183 192 186 196 196 198 200 203 218 224 222 217 218 221 224 228
201 198 196 197 195 188 194 195 198 195 187 183 176 180 182 162 173 182 181 179 184 183 194 195 191 185 188 218 206 217 229 234 234 227 226 229 232 238
176 174 172 173 177 182 180 195 203 199 189 187 186 184 188 184 182 184 183 186 190 193 214 192 200 199 197 209 225 226 239 243 242 239 235 237 240 246
172 171 170 172 170 175 178 181 180 190 194 188 193 192 191 188 180 181 182 184 190 196 159 212 205 205 209 216 212 227 244 242 242 243 242 243 245 250
170 163 159 155 157 153 156 156 167 179 184 190 194 189 184 186 181 176 181 189 194 197 211 210 221 225 223 228 237 247 250 255 246 246 247 249 255 260
158 155 164 158 150 153 153 155 146 166 177 175 176 177 183 187 188 194 197 200 202 216 217 222 230 233 221 229 236 251 251 245 267 261 239 247 259 266
165 163 166 160 158 163 166 164 160 150 161 159 167 176 183 188 194 196 200 205 212 218 226 223 228 240 241 240 248 254 261 257 254 255 259 262 271 274
172 166 165 168 170 170 168 170 168 162 170 174 178 184 187 187 189 196 203 210 217 221 216 213 237 249 267 268 266 261 261 271 262 256 259 265 277 280
164 163 163 167 169 168 169 170 174 173 174 180 184 187 193 195 207 210 204 213 228 212 212 212 233 253 274 291 285 312 266 255 254 253 256 262 273 282
163 161 160 165 163 162 163 166 172 173 177 180 180 187 188 196 201 208 204 214 215 211 217 220 236 247 253 278 287 272 289 283 272 277 277 275 278 290
154 152 149 159 155 158 164 169 167 168 173 178 186 185 179 179 191 192 192 202 202 202 213 235 258 272 275 290 295 295 299 296 295 286 283 286 287 287
148 148 147 151 153 155 164 170 174 176 177 174 173 176 176 178 153 161 174 179 217 225 241 250 261 275 280 271 278 286 296 283 305 300 298 282 280 282
138 137 139 142 148 150 144 146 147 156 161 169 169 172 173 167 178 166 205 226 247 256 265 273 273 270 275 272 275 282 291 289 270 316 294 283 272 281